Regional Weather Roundup
Issued by NWS Huntsville, AL

Home | Current Version | Previous Version | Text Only | Print | Product List | Glossary On
Versions: 1 2 3 4 5 6 7 8 9 10 11 12 13 14 15 16 17 18 19 20 21 22 23 24 25 26 27 28 29 30 31 32 33 34 35 36 37 38 39 40 41 42 43 44 45 46 47 48 49 50
000
ASUS44 KHUN 271410
RWRHUN

WEATHER ROUNDUP FOR THE TENNESSEE VALLEY
NATIONAL WEATHER SERVICE HUNTSVILLE AL
900 AM CDT THU JUL 27 2017

ALZ001>004-271500-
NORTHWEST ALABAMA

CITY           SKY/WX    TMP DP  RH WIND       PRES   REMARKS
COURTLAND HCN    N/A     82 N/A N/A W3          N/A
RUSSELLVILLE     N/A     81 N/A N/A MISG        N/A
SHOALS AIRPORT MOSUNNY   85  72  65 NW9       30.07S HX  91
SHOALS TVA RES   N/A     82 N/A N/A MISG        N/A
$$

ALZ005>007-016-271500-
NORTH CENTRAL ALABAMA

CITY           SKY/WX    TMP DP  RH WIND       PRES   REMARKS
CULLMAN AG STN   N/A     81 N/A N/A CALM        N/A
DECATUR AP     SUNNY     83  77  82 VRB5      30.06S HX  92
HUNTSVILLE AP  MOSUNNY   85  79  82 CALM      30.06S HX  98
MERIDIANVILLE  MOSUNNY   82  72  69 W5        30.07S
REDSTONE ARSN  MOSUNNY   82  76  82 CALM      30.05S HX  90
VINEMONT AP    FAIR      85  72  64 CALM      30.11R HX  90
$$

ALZ008>010-271500-
NORTHEAST ALABAMA

CITY           SKY/WX    TMP DP  RH WIND       PRES   REMARKS
ALBERTVILLE    SUNNY     81  81 100 CALM      30.09R HX  91
FORT PAYNE     SUNNY     81  72  74 CALM      30.07F
SCOTTSBORO AP  SUNNY     82  77  83 SW3       30.07F HX  91
SCOTTSBORO HCN   N/A     81 N/A N/A MISG        N/A
$$

TNZ076-096-097-271500-
SOUTHEASTERN MIDDLE TENNESSEE

CITY           SKY/WX    TMP DP  RH WIND       PRES   REMARKS
TULLAHOMA      SUNNY     82  73  74 W5        30.08F
WINCHESTER     SUNNY     84  73  70 SW3       30.07F HX  91
$$

...SURROUNDING SITES...

CITY           SKY/WX    TMP DP  RH WIND       PRES   REMARKS
ATLANTA        MOSUNNY   81  73  76 CALM      30.11S
ANNISTON       SUNNY     82  74  76 CALM      30.09R
BIRMINGHAM     MOSUNNY   83  75  77 CALM      30.09F HX  90
CHATTANOOGA    MOSUNNY   80  71  74 VRB6      30.08S
CORINTH        FAIR      82  73  74 CALM      30.05S
DALTON         NOT AVBL
GADSDEN        SUNNY     82  77  84 VRB3      30.07F HX  90
GOLDEN TRNGL   SUNNY     82  70  65 CALM      30.03R
JACKSON TN     MOSUNNY   83  75  77 SW8       30.03S HX  90
MEMPHIS        PTSUNNY   86  76  71 SW10      30.03S HX  96
NASHVILLE      PTSUNNY   85  73  67 SW5       30.04S HX  91
OXFORD MS      FAIR      82  72  69 SW6       30.07F
ROME           CLOUDY    80  73  79 S6        30.08S
SAVANNAH       SUNNY     84  75  74 SW7       30.04S HX  92
TUPELO         MOSUNNY   85  71  63 CALM      30.05S HX  90
TUSCALOOSA     SUNNY     83  78  85 CALM      30.07R HX  93
$$

...GULF COAST WEATHER...

CITY           SKY/WX    TMP DP  RH WIND       PRES   REMARKS
GULFPORT       SUNNY     86  72  62 N5        30.06R HX  92
PASCAGOULA     SUNNY     85  74  69 VRB6      30.06R HX  92
MOBILE         MOSUNNY   86  73  65 N7        30.07R HX  93
GULF SHORES    CLOUDY    83  80  90 CALM      30.05S HX  97
PENSACOLA      CLOUDY    81  74  79 N3        30.05R
DESTIN         SUNNY     84  73  69 N5        30.05S HX  90
PANAMA CITY    SUNNY     82  75  80 CALM      30.04R
APPALACHICOLA  SUNNY     84  77  79 CALM      30.03S HX  94
$$




USA.gov is the U.S. government's official web portal to all federal, state and local government web resources and services.